Flag for U.S.A. Weather past 2 weeks in Stamford, Connecticut, U.S.A.

Now
76 °F

Clear.


Feels Like: 77 °F
Forecast: 73 / 83 °F
Wind: No wind

Location: Westchester County Airport

Current Time: Jul 8, 2015 at 1:28:46 AM

Latest Report: Jul 8, 2015 at 12:56 AM


Visibility: 7 mi

Pressure: 29.94 "Hg

Humidity: 80%

Dew point: 69 °F

Location of StamfordLocation

Historic Weather in Stamford — Graph

°F

Stamford temperature yesterday

Maximum temperature yesterday: 85 °F (at 2:56 PM)
Minimum temperature yesterday: 71 °F (at 12:56 AM)
Average temperature yesterday: 77 °F

Past Weeks' High & Low Weather Summary

 TemperatureHumidityPressure
High87 °F (Jun 23, 11:56 AM)100% (Jun 29, 1:04 AM)30.17 "Hg (Jun 29, 1:04 AM)
Low56 °F (Jun 27, 10:56 PM)33% (Jul 3, 3:56 PM)29.65 "Hg (Jun 28, 10:56 AM)
Average71 °F71%29.94 "Hg
* Reported Jun 22 11:56 PM — Jul 7 11:56 PM, Stamford, Weather by CustomWeather, © 2015

Note: Actual official high and low records may vary slightly from our data, if they occured in-between our weather recording intervals... More about our weather records

Advertising

Stamford weather history for previous 24 hours

 ConditionsComfort  
Time TempWeatherWind HumidityBarometerVisibility
11:56 PM
Tue, Jul 7
77 °FClear.No wind79%29.95 "Hg8 mi
10:56 PM77 °FClear.3 mph79%29.95 "Hg9 mi
9:56 PM75 °FClear.No wind88%29.96 "Hg8 mi
8:56 PM74 °FPassing clouds.No wind91%29.95 "Hg8 mi
7:56 PM79 °FLight rain. Scattered clouds.5 mph82%29.94 "Hg7 mi
7:03 PM81 °FScattered clouds.8 mph79%29.94 "Hg7 mi
6:56 PM80 °FThunderstorms. Scattered clouds.7 mph79%29.92 "Hg7 mi
5:56 PM81 °FScattered clouds.9 mph77%29.93 "Hg9 mi
4:56 PM83 °FScattered clouds.13 mph70%29.93 "Hg10 mi
3:56 PM81 °FPartly sunny.12 mph74%29.95 "Hg10 mi
2:56 PM85 °FPartly sunny.14 mph68%29.95 "Hg9 mi
1:56 PM83 °FPartly sunny.9 mph70%29.97 "Hg10 mi
12:56 PM81 °FFog.8 mph77%29.98 "Hg3 mi
11:56 AM81 °FBroken clouds.6 mph79%30.00 "Hg10 mi
10:56 AM77 °FBroken clouds.No wind88%30.02 "Hg10 mi
9:56 AM77 °FLight rain. Partly sunny.9 mph85%30.03 "Hg7 mi
8:56 AM77 °FPartly sunny.8 mph85%30.03 "Hg9 mi
7:56 AM75 °FFog.6 mph90%30.04 "Hg6 mi
6:56 AM73 °FFog.3 mph94%30.04 "Hg4 mi
5:56 AM72 °FFog.No wind93%30.04 "Hg2 mi
4:56 AM72 °FMostly cloudy.3 mph93%30.04 "Hg7 mi
3:56 AM72 °FHaze.No wind87%30.04 "Hg10 mi
2:56 AM72 °FMostly cloudy.5 mph84%30.04 "Hg10 mi
1:56 AM72 °FOvercast.5 mph81%30.06 "Hg10 mi
Weather by CustomWeather, © 2015

See weather overviewHow to use our weather pages